CYMM

Fort McMurray International Airport

Airport
ICAO code
CYMM
IATA Code
YMM
Summary
ICAO Region
NAM
ICAO Territory
Location

Fort McMurray, Alberta

Serving
Regional Municipality of Wood Buffalo
Elevation
1211 ft
Coordinates
56° 38' 57" N , 111° 13' 48" W
Metar
CYMM 251300Z AUTO 09005KT 9SM CLR 05/02 A2970 RMK ICE MISG SLP070

Fort McMurray International Airport is located 13 km southeast of Fort McMurray, Alberta, Canada.

Runways

Designator Length Width Surface Rops
7/25 2287 46 ASP Yes/Yes

Airport map

Aerial View

SKYbrary Partners:

Safety knowledge contributed by: